Location: D�nning
(49.2479°N, 12.8491°E)
Time: 05:16:46
(UTC+00:00)

CZ-2C R/B - Pass Details

Date: 18 September 2020
Orbit: 785 x 870 km, 98.2° (Epoch: 29 October)

Event Time Altitude Azimuth Distance (km) Brightness Sun altitude
Rises 19:15:46 0° 12° (NNE) 3,408 6.0 -19.8°
Reaches altitude 10° 19:18:07 10° 11° (N) 2,481 5.3 -20.2°
Maximum altitude 19:23:38 75° 288° (WNW) 893 2.9 -21.0°
Drops below altitude 10° 19:29:12 10° 203° (SSW) 2,504 5.1 -21.8°
Sets 19:31:35 0° 202° (SSW) 3,441 5.8 -22.1°
